Stündliche Wetter Holubivka

Heute, 16 Juni, Mittwoch

Zeit Temperatur Niederschläge Wind Luftdruck Luftfeuchtigkeit
00:00 +20°C° 0.5 mm 1 m/S 743 mmHg 83%
01:00 +20°C° 0.5 mm 1 m/S 743 mmHg 85%
02:00 +18°C° 0 mm 0 m/S 743 mmHg 87%
03:00 +20°C° 0.1 mm 1 m/S 743 mmHg 87%
04:00 +20°C° 0.1 mm 1 m/S 743 mmHg 86%
05:00 +20°C° 0.1 mm 1 m/S 743 mmHg 86%
06:00 +21°C° 0.1 mm 1 m/S 743 mmHg 82%
07:00 +23°C° 0.1 mm 1 m/S 743 mmHg 77%
08:00 +24°C° 0.1 mm 2 m/S 744 mmHg 72%
09:00 +25°C° 0.9 mm 2 m/S 744 mmHg 67%
10:00 +26°C° 0.9 mm 2 m/S 744 mmHg 61%
11:00 +27°C° 0.9 mm 2 m/S 744 mmHg 56%
12:00 +27°C° 0.1 mm 2 m/S 744 mmHg 55%
13:00 +27°C° 0.1 mm 1 m/S 744 mmHg 54%
14:00 +28°C° 0.1 mm 1 m/S 744 mmHg 53%
15:00 +28°C° 0 mm 1 m/S 744 mmHg 54%
16:00 +28°C° 0 mm 1 m/S 744 mmHg 56%
17:00 +28°C° 0 mm 1 m/S 744 mmHg 58%
18:00 +26°C° 0 mm 2 m/S 744 mmHg 63%
19:00 +24°C° 0 mm 2 m/S 744 mmHg 68%
20:00 +21°C° 0 mm 2 m/S 745 mmHg 74%
21:00 +21°C° 0.1 mm 2 m/S 745 mmHg 77%
22:00 +20°C° 0.1 mm 3 m/S 745 mmHg 80%
23:00 +20°C° 0.1 mm 3 m/S 745 mmHg 83%

Morgen, 17 Juni, Donnerstag

Zeit Temperatur Niederschläge Wind Luftdruck Luftfeuchtigkeit
00:00 +20°C° 0.4 mm 2 m/S 745 mmHg 85%
01:00 +19°C° 0.4 mm 2 m/S 745 mmHg 88%
02:00 +20°C° 0.4 mm 1 m/S 745 mmHg 90%
03:00 +19°C° 0.1 mm 3 m/S 745 mmHg 90%
04:00 +19°C° 0.1 mm 4 m/S 745 mmHg 90%
05:00 +19°C° 0.1 mm 5 m/S 745 mmHg 90%
06:00 +20°C° 0 mm 5 m/S 746 mmHg 89%
07:00 +21°C° 0 mm 5 m/S 746 mmHg 87%
08:00 +22°C° 0 mm 5 m/S 746 mmHg 86%
09:00 +23°C° 0 mm 5 m/S 747 mmHg 82%
10:00 +25°C° 0 mm 5 m/S 747 mmHg 78%
11:00 +26°C° 0 mm 5 m/S 747 mmHg 74%
12:00 +26°C° 0.3 mm 5 m/S 747 mmHg 72%
13:00 +27°C° 0.3 mm 6 m/S 747 mmHg 70%
14:00 +27°C° 0.3 mm 6 m/S 747 mmHg 67%
15:00 +27°C° 0.5 mm 6 m/S 747 mmHg 71%
16:00 +26°C° 0.5 mm 6 m/S 747 mmHg 74%
17:00 +26°C° 0.5 mm 6 m/S 747 mmHg 77%
18:00 +24°C° 0.3 mm 7 m/S 748 mmHg 79%
19:00 +23°C° 0.3 mm 7 m/S 748 mmHg 81%
20:00 +22°C° 0.3 mm 8 m/S 748 mmHg 84%
21:00 +21°C° 0.3 mm 8 m/S 748 mmHg 84%
22:00 +20°C° 0.3 mm 8 m/S 749 mmHg 85%
23:00 +18°C° 0.3 mm 8 m/S 749 mmHg 85%

übermorgen, 18 Juni, Freitag

Zeit Temperatur Niederschläge Wind Luftdruck Luftfeuchtigkeit
00:00 +18°C° 0.1 mm 7 m/S 749 mmHg 84%
01:00 +17°C° 0.1 mm 7 m/S 749 mmHg 83%
02:00 +17°C° 0.1 mm 6 m/S 749 mmHg 82%
03:00 +16°C° 0 mm 6 m/S 750 mmHg 82%
04:00 +16°C° 0 mm 6 m/S 750 mmHg 83%
05:00 +16°C° 0 mm 5 m/S 751 mmHg 84%
06:00 +17°C° 0 mm 6 m/S 751 mmHg 80%
07:00 +20°C° 0 mm 6 m/S 751 mmHg 75%
08:00 +21°C° 0 mm 7 m/S 752 mmHg 71%
09:00 +22°C° 0 mm 7 m/S 752 mmHg 67%
10:00 +23°C° 0 mm 7 m/S 752 mmHg 63%
11:00 +24°C° 0 mm 7 m/S 752 mmHg 59%
12:00 +26°C° 0 mm 7 m/S 752 mmHg 58%
13:00 +26°C° 0 mm 7 m/S 752 mmHg 57%
14:00 +26°C° 0 mm 7 m/S 752 mmHg 56%
15:00 +26°C° 0 mm 6 m/S 752 mmHg 60%
16:00 +26°C° 0 mm 6 m/S 752 mmHg 63%
17:00 +24°C° 0 mm 6 m/S 752 mmHg 66%
18:00 +23°C° 0 mm 5 m/S 752 mmHg 70%
19:00 +21°C° 0 mm 5 m/S 753 mmHg 75%
20:00 +20°C° 0 mm 5 m/S 753 mmHg 79%
21:00 +19°C° 0 mm 5 m/S 753 mmHg 78%
22:00 +19°C° 0 mm 5 m/S 753 mmHg 78%
23:00 +17°C° 0 mm 5 m/S 753 mmHg 78%

19 Juni, Samstag

Zeit Temperatur Niederschläge Wind Luftdruck Luftfeuchtigkeit
00:00 +17°C° 0 mm 5 m/S 753 mmHg 78%
01:00 +16°C° 0 mm 5 m/S 753 mmHg 78%
02:00 +15°C° 0 mm 5 m/S 753 mmHg 78%
03:00 +15°C° 0 mm 5 m/S 753 mmHg 78%
04:00 +15°C° 0 mm 5 m/S 754 mmHg 78%
05:00 +15°C° 0 mm 5 m/S 754 mmHg 78%
06:00 +16°C° 0 mm 6 m/S 754 mmHg 73%
07:00 +19°C° 0 mm 6 m/S 754 mmHg 68%
08:00 +20°C° 0 mm 7 m/S 754 mmHg 63%
09:00 +21°C° 0 mm 7 m/S 754 mmHg 61%
10:00 +22°C° 0 mm 7 m/S 754 mmHg 58%
11:00 +23°C° 0 mm 7 m/S 754 mmHg 56%
12:00 +24°C° 0 mm 7 m/S 753 mmHg 55%
13:00 +24°C° 0 mm 7 m/S 753 mmHg 54%
14:00 +26°C° 0 mm 6 m/S 753 mmHg 53%
15:00 +24°C° 0 mm 6 m/S 753 mmHg 56%
16:00 +24°C° 0 mm 6 m/S 753 mmHg 59%
17:00 +25°C° 0 mm 5 m/S 752 mmHg 62%
18:00 +22°C° 0 mm 5 m/S 753 mmHg 68%
19:00 +20°C° 0 mm 4 m/S 753 mmHg 74%
20:00 +19°C° 0 mm 4 m/S 753 mmHg 80%
21:00 +18°C° 0 mm 4 m/S 753 mmHg 79%
22:00 +18°C° 0 mm 4 m/S 753 mmHg 79%
23:00 +18°C° 0 mm 4 m/S 753 mmHg 78%

20 Juni, Sonntag

Zeit Temperatur Niederschläge Wind Luftdruck Luftfeuchtigkeit
00:00 +17°C° 0 mm 4 m/S 753 mmHg 78%
01:00 +17°C° 0 mm 4 m/S 753 mmHg 78%
02:00 +15°C° 0 mm 4 m/S 752 mmHg 78%
03:00 +15°C° 0 mm 4 m/S 753 mmHg 78%
04:00 +15°C° 0 mm 4 m/S 753 mmHg 78%
05:00 +15°C° 0 mm 5 m/S 753 mmHg 77%
06:00 +17°C° 0 mm 5 m/S 753 mmHg 71%
07:00 +20°C° 0 mm 6 m/S 753 mmHg 65%
08:00 +22°C° 0 mm 7 m/S 752 mmHg 58%
09:00 +23°C° 0 mm 7 m/S 752 mmHg 55%
10:00 +24°C° 0 mm 7 m/S 752 mmHg 52%
11:00 +26°C° 0 mm 7 m/S 752 mmHg 49%
12:00 +27°C° 0 mm 7 m/S 752 mmHg 50%
13:00 +27°C° 0 mm 7 m/S 751 mmHg 51%
14:00 +28°C° 0 mm 7 m/S 751 mmHg 52%
15:00 +27°C° 0 mm 6 m/S 751 mmHg 55%
16:00 +27°C° 0 mm 6 m/S 751 mmHg 58%
17:00 +26°C° 0 mm 6 m/S 751 mmHg 60%
18:00 +24°C° 0 mm 6 m/S 751 mmHg 65%
19:00 +22°C° 0 mm 5 m/S 750 mmHg 69%
20:00 +21°C° 0 mm 5 m/S 750 mmHg 74%
21:00 +21°C° 0 mm 5 m/S 750 mmHg 71%
22:00 +21°C° 0 mm 5 m/S 750 mmHg 67%
23:00 +21°C° 0 mm 5 m/S 750 mmHg 64%

21 Juni, Montag

Zeit Temperatur Niederschläge Wind Luftdruck Luftfeuchtigkeit
00:00 +20°C° 0 mm 5 m/S 750 mmHg 64%
01:00 +20°C° 0 mm 5 m/S 750 mmHg 65%
02:00 +19°C° 0 mm 5 m/S 749 mmHg 66%
03:00 +19°C° 0 mm 5 m/S 749 mmHg 69%
04:00 +19°C° 0 mm 5 m/S 749 mmHg 72%
05:00 +19°C° 0 mm 4 m/S 749 mmHg 74%
06:00 +21°C° 0 mm 5 m/S 749 mmHg 69%
07:00 +23°C° 0 mm 5 m/S 749 mmHg 63%
08:00 +26°C° 0 mm 6 m/S 749 mmHg 58%
09:00 +27°C° 0 mm 6 m/S 749 mmHg 54%
10:00 +28°C° 0 mm 7 m/S 749 mmHg 50%
11:00 +30°C° 0 mm 7 m/S 749 mmHg 46%
12:00 +30°C° 0 mm 7 m/S 749 mmHg 46%
13:00 +32°C° 0 mm 7 m/S 749 mmHg 47%
14:00 +32°C° 0 mm 7 m/S 748 mmHg 48%
15:00 +32°C° 0 mm 7 m/S 748 mmHg 50%
16:00 +30°C° 0 mm 6 m/S 748 mmHg 53%
17:00 +29°C° 0 mm 6 m/S 748 mmHg 56%
18:00 +28°C° 0 mm 5 m/S 748 mmHg 63%
19:00 +26°C° 0 mm 5 m/S 748 mmHg 69%
20:00 +23°C° 0 mm 4 m/S 748 mmHg 76%
21:00 +23°C° 0 mm 4 m/S 748 mmHg 74%
22:00 +22°C° 0 mm 5 m/S 748 mmHg 73%
23:00 +22°C° 0 mm 5 m/S 748 mmHg 71%
Mehr zeigen

Wir brauchen deine Erlaubnis

Meteoprog und unser Service Anbieter werden persönliche Daten aufbewahren, so wie Cookies, Geräte Bezeichnung oder ähnliche Technologien von deinem Gerät und Prozess, so wie Persönliche Daten Inhalte und Werbungen, genauso wie social Media und den Verkehr zu analysieren.

  • Aufbewahrung und/oder Zugang zu deiner Geräte Informationen.

    Cookies, Geräte Bezeichnung oder andere Informationen, können aufbewahrt oder Zugang zu deinem Gerät erhalten, für den Grund, der oben angegeben wird.

  • Personalisierte Werbung und Inhalte, Messungen, Einblick in das Publikum und Produkt Entwicklung.

    Werbungen und Inhalte können personalisiert werden, basierend auf ein Profil. Mehr Daten können besser personalisierte Werbungen und Inhalte hinzufügen. Werbung und Inhalte können gezeigt und gemessen werden. Einblicke über das Publikum, welche die Werbung gesehen haben und den Inhalt, können abgeleitet werden. So wie Daten können genutzt werden, um es zu verbessern oder die Benutzer Erfahrung zu verbessern das System und die Software.

Wenn du “Ich stimme zu” klickst, erlaubst du uns, die Cookies zu benutzen die Geräte Bezeichnung, den Web oder ähnliche Technologien zu benutzen. Deine Settings, können in deinem Gerät bei deinem Browser geändert werden.

Für den bestimmten Zweck, berechtigten Interessen beruhen darauf, mehr als auf den Inhalt. Du kannst mehr darüber in unseren Privaten und Cookie Politik lesen.